Weather in Shovskoye

Russia / Lipetsk Oblast     53°02′30″N   39°25′04″E
temp.,
°C
wind,
m/s
gust,
m/s
humid.,
%
clouds,
%
prec.,
mm/h
press.,
hPa
HPBL,
m
5 december, sun
sun500:00−2wsw36805 0.0 1015324
03:00−2wsw25847 0.0 1016215
06:00−3sw238133 0.0 1015119
09:00−2sw2476100 0.0 1017211
12:00−1ssw3466100 0.0 1017325
15:00−1ssw236363 0.0 1017219
18:00−2s22670 0.0 101826
21:00−2s2267100 0.0 101950
6 december, mon
mon600:00−2s226872 0.0 102052
03:00−2s2369100 0.0 102171
06:00−3sse2467100 0.0 1021107
09:00−2se3664100 0.0 1022214
12:00−1sse4754100 0.0 1022359
15:00−1se3856100 0.0 1021419
18:00−1se496065 0.0 1022336
21:00−2se41067100 0.0 1022350
7 december, tue
tue700:00−2se51081100 0.0 1022373
03:00−2se61388100 0.0 1021434
06:00−1se71497100 0.9 1019478
09:000se81798100 5.2 1017492
12:00+1sse81798100 1.2 1016545
15:00+2sse61598100 6.4 1014438
18:00+2s71698100 2.3 1014461
21:00+3s71698100 4.0 1014342
8 december, wed
wed800:00+2sse61595100 0.5 1014376
03:00+1sse61495100 0.5 1014363
06:00+1sse51395100 0.0 1014318
09:00+1sse51196100 0.0 1014279
12:00+2sse41095100 0.0 1014295
15:00+2se3895100 0.0 1013225
18:00+1ese3895100 0.0 1014186
21:00+1ese4996100 0.0 1014213
9 december, thu
thu900:00+1ese4897100 0.0 1014254
03:00+1ese3698100 0.0 1014187
06:000ese3698100 0.0 1014145
09:000se3897100 0.0 1014204
12:00+2se3697100 0.0 1014212
15:00+1se3697100 0.0 1014163
18:00+1se359792 0.0 1015131
21:00+1ese2496100 0.0 1015107